Location: Jarosław
(50.0191°N, 22.6835°E)
Time: 11:13:57
(UTC+01:00)

ISS - Pass Details

Date: 31 January 2019
Orbit: 403 x 411 km, 51.6° (Epoch: 16 February)

Event Time Altitude Azimuth Distance (km) Brightness Sun altitude
Rises 18:11:54 0° 276° (W) 2,336 1.6 -17.8°
Reaches altitude 10° 18:14:00 10° 280° (W) 1,477 0.2 -18.2°
Maximum altitude 18:17:17 63° 2° (N) 462 -3.7 -18.7°
Enters shadow 18:17:33 60° 31° (NNE) 474 -3.8 -18.7°
